COSMOS 375 DEB

Satellite information

Favourite Embed

Satellite Type and Status

DEBRISIN ORBIT

Key statistics

Satellite COSMOS 375 DEB at a glance.

Uptime

20136

Days in orbit

Revolutions

≈ 14.1

Per day

Orbit

LEO

Low Earth Orbit

Inclination

62.8

Latest

Satellite identification and parameters

Extended collection of information and parameters for COSMOS 375 DEB.

Object identification

Identified? True

Debris? True

Object name: COSMOS 375 DEB

International designator: 1970-091T

Object number (NORAD): 4712

Object ID (CCSDS): 4712

Country: COMMONWEALTH OF INDEPENDENT STATES (CIS)

Current information (Y/N): Y

RCS size: SMALL

Orbital parameters

Period: 101.909 minutes

Inclination: 62.768 deg

SMA: 7227.152 km

Apoapsis: 1214.483 km

Periapsis: 483.551 km

RAAN: 230.7577 deg

Eccentricy: 0.05056851

Argument of periapsis: 125.6753 deg

Mean anomaly: 239.2477 deg

Mean motion: 14.13031906 rev/day

Mean motion (dot): 0.00003985 rev/day2

B* drag term: 0.00063620225 1/REarth

Two-line elements (TLE)

Creation date: Dec. 16, 2025, 2:19 a.m.

Reference frame: TEME

Reference center: EARTH

Epoch: Dec. 15, 2025, 11:12 p.m. UTC

TLE line 0: 0 COSMOS 375 DEB

TLE line 1: 1 04712U 70091T 25349.96687413 .00003985 00000-0 63620-3 0 9993

TLE line 2: 2 04712 62.7680 230.7577 0505685 125.6753 239.2477 14.13031906718079

Live tracking on map

Real-time ground track for satellite COSMOS 375 DEB.

In-orbit conjunctions

A list of the most updated potential collisions computed for object COSMOS 375 DEB.

Target Orbit TCA Probability of collision Miss distance Type
SL-14 R/B LEO 2025-01-24 01:39:33 0.0005179923 557.0 (m) ROCKET BODY

Associated space launch

The I2P satellites were the first soviet coorbital ASAT system.

COSMOS 375 DEB was lifted into orbit during the mission ‘Tsiklon-2 | I2P 5’, on board a Tsiklon-2 space rocket.

The launch took place on Oct. 30, 1970, 2:36 a.m. from 90/20.

For more information about the launch, click the button.

Launch to space Tsiklon-2 | I2P 5
Tsiklon-2 | I2P 5

Agency: N/A

Status: Launch Successful

Launch date: Oct. 30, 1970, 2:36 a.m. UTC

Rocket: Tsiklon-2

Launch pad: 90/20

Location: Baikonur Cosmodrome, Republic of Kazakhstan

...

Latest news about this satellite

There are no fresh news available about this satellite. Check back as we update our databases every day.


Newsletter sign-up

Weekly statistics, charts and insights to help you stay on top of the space industry.